Location: Big Bend
(41.8409°N, 79.0042°W)
Time: 09:21:22
(UTC+00:00)

Envisat - Pass Details

Date: 15 October 2024
Orbit: 761 x 763 km, 98.3° (Epoch: 11 November)

Event Time Altitude Azimuth Distance (km) Brightness Sun altitude
Rises 08:32:44 0° 11° (NNE) 3,235 6.6 -33.2°
Reaches altitude 10° 08:35:02 10° 11° (N) 2,304 5.8 -32.8°
Enters shadow 08:36:59 24° 9° (N) 1,550 4.8 -32.4°
